Weather reports worldwide

Advertisment
Stonyhurst, United Kingdom (99060): temperature & dewpoint: 14.06.2019 13:00:00 - 20.06.2019 13:00:00 (BST)Stonyhurst, United Kingdom (99060): precipitation: 14.06.2019 13:00:00 - 20.06.2019 13:00:00 (BST)
Date & Time tt [°C] td [°C] rr [mm]
20.06.2019 13:00:00 - - -
20.06.2019 12:00:00 14,2 7,2 0,0
20.06.2019 11:00:00 13,9 7,3 0,0
20.06.2019 10:00:00 12,7 8,0 0,0
20.06.2019 09:00:00 11,9 9,7 0,2
20.06.2019 08:00:00 11,4 9,6 0,0
20.06.2019 07:00:00 11,3 9,6 0,0
20.06.2019 06:00:00 11,4 9,8 0,0
20.06.2019 05:00:00 11,6 10,4 0,0
20.06.2019 04:00:00 11,0 10,3 0,2
20.06.2019 03:00:00 10,8 9,3 0,0
20.06.2019 02:00:00 11,3 8,3 0,0
20.06.2019 01:00:00 10,4 8,4 0,0
20.06.2019 00:00:00 10,3 7,8 0,0
19.06.2019 23:00:00 11,2 7,8 0,0
19.06.2019 22:00:00 12,0 7,6 0,0
19.06.2019 21:00:00 14,1 6,7 0,0
19.06.2019 20:00:00 15,6 6,3 0,0
19.06.2019 19:00:00 16,8 7,2 0,0
19.06.2019 18:00:00 17,7 8,5 0,0
19.06.2019 17:00:00 17,4 9,3 0,0
19.06.2019 16:00:00 17,8 8,1 0,0
19.06.2019 15:00:00 18,5 9,5 0,0
19.06.2019 14:00:00 17,5 10,0 0,0
19.06.2019 13:00:00 17,6 9,3 0,0
19.06.2019 12:00:00 17,1 10,9 0,0
19.06.2019 11:00:00 15,1 12,2 0,0
19.06.2019 10:00:00 13,1 10,5 0,0
19.06.2019 09:00:00 12,0 10,4 0,2
19.06.2019 08:00:00 10,6 10,1 0,0
19.06.2019 07:00:00 10,2 9,6 0,4
19.06.2019 06:00:00 10,9 10,6 0,2
19.06.2019 05:00:00 10,8 10,5 0,2
19.06.2019 04:00:00 10,5 10,1 0,8
19.06.2019 03:00:00 10,9 10,1 0,2
19.06.2019 02:00:00 11,3 10,2 0,6
19.06.2019 01:00:00 12,5 11,4 1,4
19.06.2019 00:00:00 13,4 11,4 0,2
18.06.2019 23:00:00 14,1 10,6 0,0
18.06.2019 22:00:00 14,8 10,9 0,0
18.06.2019 21:00:00 15,7 10,8 0,0
18.06.2019 20:00:00 16,2 10,3 0,0
18.06.2019 19:00:00 16,8 10,1 0,0
18.06.2019 18:00:00 17,6 10,8 0,0
18.06.2019 17:00:00 17,3 10,5 0,0
18.06.2019 16:00:00 17,6 10,4 0,0
18.06.2019 15:00:00 18,3 10,3 0,0
18.06.2019 14:00:00 16,8 7,9 0,0
18.06.2019 13:00:00 16,7 8,4 0,0
18.06.2019 12:00:00 16,4 9,8 0,0
18.06.2019 11:00:00 16,0 10,1 0,0
18.06.2019 10:00:00 15,4 10,3 0,0
18.06.2019 09:00:00 13,8 10,5 0,0
18.06.2019 08:00:00 13,4 10,7 0,0
18.06.2019 07:00:00 11,3 10,2 0,0
18.06.2019 06:00:00 8,6 7,9 0,0
18.06.2019 05:00:00 8,9 7,9 0,0
18.06.2019 04:00:00 8,6 7,0 0,0
18.06.2019 03:00:00 9,7 7,4 0,0
18.06.2019 02:00:00 10,0 7,0 0,0
18.06.2019 01:00:00 10,3 7,1 0,0
18.06.2019 00:00:00 10,9 7,4 0,0
17.06.2019 23:00:00 11,6 8,3 0,0
17.06.2019 22:00:00 12,8 8,8 0,0
17.06.2019 21:00:00 14,1 9,8 0,0
17.06.2019 20:00:00 15,0 10,0 0,0
17.06.2019 19:00:00 16,1 11,0 0,0
17.06.2019 18:00:00 15,5 10,9 0,0
17.06.2019 17:00:00 15,6 10,8 0,0
17.06.2019 16:00:00 15,8 11,5 0,0
17.06.2019 15:00:00 15,5 11,4 0,2
17.06.2019 14:00:00 14,1 11,3 0,0
17.06.2019 13:00:00 14,1 12,1 0,2
17.06.2019 12:00:00 13,8 11,5 0,0
17.06.2019 11:00:00 13,4 11,1 0,0
17.06.2019 10:00:00 13,3 10,8 0,0
17.06.2019 09:00:00 13,3 11,2 0,0
17.06.2019 08:00:00 12,7 11,2 0,0
17.06.2019 07:00:00 11,2 10,7 0,2
17.06.2019 06:00:00 11,0 10,7 1,0
17.06.2019 05:00:00 11,5 11,2 2,8
17.06.2019 04:00:00 11,8 11,3 1,6
17.06.2019 03:00:00 12,5 11,2 0,4
17.06.2019 02:00:00 12,5 10,9 0,8
17.06.2019 01:00:00 12,7 11,0 0,8
17.06.2019 00:00:00 13,4 11,3 0,2
16.06.2019 23:00:00 14,1 11,2 0,0
16.06.2019 22:00:00 13,8 12,0 0,0
16.06.2019 21:00:00 13,8 12,1 0,2
16.06.2019 20:00:00 13,6 12,2 0,4
16.06.2019 19:00:00 13,4 11,5 1,0
16.06.2019 18:00:00 15,7 8,5 0,0
16.06.2019 17:00:00 16,9 9,0 0,0
16.06.2019 16:00:00 15,0 12,7 2,6
16.06.2019 15:00:00 16,4 10,4 0,0
16.06.2019 14:00:00 15,7 10,0 0,0
16.06.2019 13:00:00 15,5 10,0 0,0
16.06.2019 12:00:00 14,3 10,1 0,0
16.06.2019 11:00:00 13,5 10,3 0,0
16.06.2019 10:00:00 11,7 10,0 0,0
16.06.2019 09:00:00 10,8 8,8 0,0
16.06.2019 08:00:00 10,4 8,6 0,0
16.06.2019 07:00:00 9,7 8,1 0,0
16.06.2019 06:00:00 9,0 7,7 0,0
16.06.2019 05:00:00 9,1 8,1 0,0
16.06.2019 04:00:00 8,7 8,0 0,0
16.06.2019 03:00:00 8,5 7,7 0,0
16.06.2019 02:00:00 8,0 7,6 0,0
16.06.2019 01:00:00 8,5 8,0 0,0
16.06.2019 00:00:00 10,3 9,7 0,4
15.06.2019 23:00:00 10,8 10,6 0,0
15.06.2019 22:00:00 11,0 10,4 0,0
15.06.2019 21:00:00 12,0 10,9 0,0
15.06.2019 20:00:00 12,6 11,0 0,0
15.06.2019 19:00:00 12,4 11,1 0,0
15.06.2019 18:00:00 13,0 10,9 0,2
15.06.2019 17:00:00 12,1 11,2 0,6
15.06.2019 16:00:00 11,8 10,6 2,0
15.06.2019 15:00:00 11,8 10,4 2,0
15.06.2019 14:00:00 13,5 12,1 2,4
15.06.2019 13:00:00 14,4 10,5 0,0
15.06.2019 12:00:00 15,5 11,9 0,0
15.06.2019 11:00:00 13,5 10,0 0,0
15.06.2019 10:00:00 12,7 9,7 0,0
15.06.2019 09:00:00 12,2 9,2 0,0
15.06.2019 08:00:00 11,8 9,3 0,0
15.06.2019 07:00:00 11,8 9,5 0,0
15.06.2019 06:00:00 11,3 9,5 0,0
15.06.2019 05:00:00 11,1 9,6 0,0
15.06.2019 04:00:00 10,5 9,3 0,0
15.06.2019 03:00:00 11,2 9,3 0,0
15.06.2019 02:00:00 11,1 10,7 0,0
15.06.2019 01:00:00 10,8 10,5 0,0
15.06.2019 00:00:00 10,7 10,1 0,0
14.06.2019 23:00:00 11,1 10,4 0,0
14.06.2019 22:00:00 11,9 10,9 0,0
14.06.2019 21:00:00 12,6 11,1 0,0
14.06.2019 20:00:00 14,3 9,4 0,0
14.06.2019 19:00:00 14,9 9,2 0,0
14.06.2019 18:00:00 15,1 8,8 0,0
14.06.2019 17:00:00 14,5 8,8 0,0
14.06.2019 16:00:00 14,8 7,9 0,0
14.06.2019 15:00:00 15,1 8,0 0,0
14.06.2019 14:00:00 14,5 8,4 0,0
14.06.2019 13:00:00 12,6 8,1 0,0

tt = temperature
td = dewpoint
rr = precipitation

Next stations